Location: Newark
(45.8667°N, 9.7333°E)
Time: 13:55:13
(UTC+00:00)

ITAMSAT 1 - Pass Details

Date: 22 February 2020
Orbit: 784 x 796 km, 98.9° (Epoch: 08 April)

Event Time Altitude Azimuth Distance (km) Brightness Sun altitude
Rises 17:42:14 0° 218° (SW) 3,267 11.6 -8.6°
Reaches altitude 10° 17:46:03 10° 248° (WSW) 2,348 11.5 -9.3°
Maximum altitude 17:48:12 12° 272° (W) 2,181 11.5 -9.7°
Drops below altitude 10° 17:50:21 10° 297° (WNW) 2,358 11.1 -10.0°
Sets 17:54:14 0° 326° (NNW) 3,297 11.3 -10.7°
